Weather History for Luqa, Malta

Change the Weather History Date:

Thursday, January 17, 2013

  Actual Average Record
Temperature  
Mean Temperature 57 °F -  
Max Temperature 61 °F 60 °F 64 °F (2007)
Min Temperature 53 °F 49 °F 41 °F (1997)
Degree Days  
Heating Degree Days 8    
Growing Degree Days 7 (Base 50)    
Moisture  
Dew Point 48 °F    
Average Humidity 72    
Maximum Humidity 94    
Minimum Humidity 56    
Precipitation  
Precipitation 0.01 in 0.10 in - ()
Sea Level Pressure  
Sea Level Pressure 29.68 in    
Wind  
Wind Speed 16 mph ()    
Max Wind Speed 25 mph    
Max Gust Speed 33 mph    
Visibility 6.3 miles    
Events Rain    
Averages and records for this station are not official NWS values.
T = Trace of Precipitation, MM = Missing Value Source: Averaged Metar Reports

Daily Weather History Graph

Daily Weather History Graph

Search for Another Location

Airport:

Trip Planner

Search our weather history database for the weather conditions in past years. The results will help you decide how hot, cold, wet, or windy it might be!

Date:

Astronomy

Jan. 17, 2013 Rise Set
Actual Time 7:11 AM CET 5:13 PM CET
Civil Twilight 6:43 AM CET 5:41 PM CET
Nautical Twilight 6:11 AM CET 6:12 PM CET
Astronomical Twilight 5:41 AM CET 6:43 PM CET
Moon 10:22 AM CET (1/17) 11:33 PM CET (1/17)
Length of Visible Light 10h 58m
Length of Day
10h 02m
Waxing Crescent, 35% of the Moon is Illuminated
Jan 17
Waxing Crescent
Jan 19
First Quarter
Jan 27
Full
Feb 3
Last Quarter
Feb 10
New

Hourly Weather History & Observations

Time (CET) Temp. Dew Point Humidity Pressure Visibility Wind Dir Wind Speed Gust Speed Precip Events Conditions
12:15 AM 57.2 °F 46.4 °F 67% 29.80 in - West 18.4 mph - N/A   Clear
12:45 AM 57.2 °F 48.2 °F 72% 29.77 in - WSW 18.4 mph - N/A   Clear
1:00 AM 58 °F 47 °F 59% 29.79 in 6 mi West 17.3 mph - -  
1:15 AM 59.0 °F 48.2 °F 67% 29.77 in - WSW 20.7 mph - N/A   Clear
1:45 AM 57.2 °F 48.2 °F 72% 29.77 in 5.6 mi West 18.4 mph - N/A   Haze
2:15 AM 57.2 °F 48.2 °F 72% 29.77 in - West 19.6 mph - N/A   Clear
2:45 AM 57.2 °F 46.4 °F 67% 29.74 in - West 16.1 mph - N/A   Clear
3:15 AM 57.2 °F 48.2 °F 72% 29.74 in - West 16.1 mph - N/A   Clear
3:45 AM 57.2 °F 46.4 °F 67% 29.74 in - West 17.3 mph 29.9 mph N/A   Clear
4:00 AM 58 °F 47 °F 56% 29.74 in 6 mi West 17.3 mph - -   Mostly Cloudy
4:15 AM 57.2 °F 46.4 °F 67% 29.71 in - WSW 17.3 mph 32.2 mph N/A   Clear
4:45 AM 57.2 °F 46.4 °F 67% 29.71 in - WSW 18.4 mph - N/A   Clear
5:15 AM 57.2 °F 46.4 °F 67% 29.71 in - WSW 13.8 mph - N/A   Clear
5:45 AM 57.2 °F 46.4 °F 67% 29.71 in 6.2 mi West 13.8 mph - N/A   Partly Cloudy
6:15 AM 57.2 °F 46.4 °F 67% 29.71 in 6.2 mi West 12.7 mph - N/A   Partly Cloudy
6:45 AM 57.2 °F 48.2 °F 72% 29.71 in 6.2 mi West 12.7 mph - N/A   Partly Cloudy
7:00 AM 57 °F 48 °F 63% 29.72 in 9 mi West 15.0 mph - -  
7:15 AM 57.2 °F 48.2 °F 72% 29.71 in - West 13.8 mph - N/A   Clear
7:45 AM 57.2 °F 48.2 °F 72% 29.71 in - WSW 11.5 mph - N/A   Clear
8:15 AM 57.2 °F 48.2 °F 72% 29.71 in - West 12.7 mph 25.3 mph N/A   Clear
8:45 AM 59.0 °F 50.0 °F 72% 29.71 in - WSW 13.8 mph - N/A   Clear
9:15 AM 59.0 °F 48.2 °F 67% 29.71 in 6.2 mi WSW 13.8 mph - N/A   Partly Cloudy
9:45 AM 59.0 °F 50.0 °F 72% 29.71 in 6.2 mi WSW 16.1 mph - N/A   Partly Cloudy
10:00 AM 59 °F 49 °F 62% 29.73 in 9 mi WSW 13.8 mph - -   Scattered Clouds
10:15 AM 59.0 °F 50.0 °F 72% 29.71 in 6.2 mi West 15.0 mph - N/A   Partly Cloudy
10:45 AM 59.0 °F 50.0 °F 72% 29.71 in 6.2 mi WSW 15.0 mph - N/A   Partly Cloudy
11:15 AM 59.0 °F 50.0 °F 72% 29.68 in 6.2 mi WSW 15.0 mph - N/A   Partly Cloudy
11:45 AM 60.8 °F 50.0 °F 68% 29.68 in 6.2 mi WSW 17.3 mph - N/A   Partly Cloudy
12:15 PM 59.0 °F 50.0 °F 72% 29.65 in 6.2 mi WSW 17.3 mph - N/A   Partly Cloudy
12:45 PM 60.8 °F 50.0 °F 68% 29.65 in - WSW 17.3 mph - N/A   Clear
1:00 PM 59 °F 50 °F 63% 29.66 in 9 mi WSW 17.3 mph - -  
1:15 PM 59.0 °F 50.0 °F 72% 29.65 in 6.2 mi WSW 15.0 mph - N/A   Partly Cloudy
1:45 PM 60.8 °F 50.0 °F 68% 29.62 in 6.2 mi WSW 15.0 mph 26.5 mph N/A   Partly Cloudy
2:15 PM 60.8 °F 50.0 °F 68% 29.62 in 6.2 mi WSW 17.3 mph 28.8 mph N/A   Partly Cloudy
2:45 PM 59.0 °F 50.0 °F 72% 29.62 in 6.2 mi West 18.4 mph - N/A   Partly Cloudy
3:15 PM 59.0 °F 50.0 °F 72% 29.62 in 6.2 mi West 18.4 mph 29.9 mph N/A   Mostly Cloudy
3:45 PM 59.0 °F 50.0 °F 72% 29.62 in 6.2 mi West 17.3 mph - N/A   Partly Cloudy
4:00 PM 58 °F 49 °F 65% 29.62 in 9 mi WSW 18.4 mph - -   Mostly Cloudy
4:15 PM 59.0 °F 50.0 °F 72% 29.62 in 6.2 mi WSW 15.0 mph - N/A   Partly Cloudy
4:45 PM 57.2 °F 50.0 °F 77% 29.62 in 6.2 mi West 15.0 mph - N/A   Partly Cloudy
5:15 PM 57.2 °F 50.0 °F 77% 29.62 in 6.2 mi WSW 15.0 mph - N/A   Partly Cloudy
5:45 PM 57.2 °F 50.0 °F 77% 29.62 in 6.2 mi WSW 17.3 mph - N/A   Scattered Clouds
6:15 PM 57.2 °F 50.0 °F 77% 29.62 in 6.2 mi WSW 18.4 mph - N/A   Scattered Clouds
6:45 PM 57.2 °F 50.0 °F 77% 29.62 in 6.2 mi West 16.1 mph - N/A   Scattered Clouds
7:00 PM 58 °F 51 °F 70% 29.64 in 7 mi West 17.3 mph - - Rain Light Rain Showers
7:09 PM 57.2 °F 51.8 °F 82% 29.62 in 3.7 mi West 18.4 mph 31.1 mph N/A Rain Heavy Rain
7:15 PM 57.2 °F 51.8 °F 82% 29.62 in 3.7 mi West 19.6 mph 31.1 mph N/A Rain Heavy Rain
7:45 PM 53.6 °F 51.8 °F 94% 29.62 in 6.2 mi WNW 18.4 mph - N/A Rain Light Rain
8:15 PM 53.6 °F 51.8 °F 94% 29.65 in 6.2 mi WNW 17.3 mph - N/A   Mostly Cloudy
8:45 PM 53.6 °F 48.2 °F 82% 29.65 in 6.2 mi WNW 18.4 mph - N/A   Mostly Cloudy
9:15 PM 53.6 °F 48.2 °F 82% 29.65 in 6.2 mi WNW 21.9 mph - N/A Rain Light Rain
9:45 PM 53.6 °F 50.0 °F 88% 29.65 in 6.2 mi WNW 16.1 mph 27.6 mph N/A Rain Light Rain
10:00 PM 54 °F 49 °F 78% 29.67 in 6 mi WNW 20.7 mph - - Rain Light Rain
10:00 PM 53.6 °F 46.4 °F 77% 29.65 in 6.2 mi WNW 21.9 mph - N/A Rain Rain
10:01 PM 53.6 °F 44.6 °F 72% 29.65 in 6.2 mi WNW 21.9 mph - N/A   Light Drizzle
10:02 PM 53.6 °F 44.6 °F 72% 29.65 in 6.2 mi WNW 21.9 mph - N/A   Drizzle
10:03 PM 53.6 °F 44.6 °F 72% 29.65 in 6.2 mi WNW 23.0 mph - N/A Rain Rain
10:04 PM 53.6 °F 42.8 °F 67% 29.65 in 6.2 mi WNW 23.0 mph - N/A   Light Drizzle
10:15 PM 53.6 °F 41.0 °F 62% 29.65 in 6.2 mi WNW 21.9 mph 33.4 mph N/A   Mostly Cloudy
10:45 PM 53.6 °F 44.6 °F 72% 29.65 in - WNW 23.0 mph - N/A   Clear
11:15 PM 53.6 °F 42.8 °F 67% 29.65 in 6.2 mi WNW 25.3 mph - N/A   Mostly Cloudy
11:45 PM 53.6 °F 41.0 °F 62% 29.65 in 6.2 mi WNW 25.3 mph - N/A   Partly Cloudy